Погода в Нерюнгри

Погода в Нерюнгри : погода сейчас, прогноз погоды и архив. Всё, что Вы хотите узнать о погоде в Нерюнгри!

Хотите узнать прогноз погоды в Нерюнгри? Тогда Вам сюда: Погода в Нерюнгри

Поиск расширенной информации на нашем сайте:

Другие новости

Новости СМИ2

Главная страница сайта

Новости сайта

03.07.2017

Напоминаем, что на нашем специализированном сайте Метеоцентр.Азия вы можете получить высокодетализированные автоматические прогнозы погоды по пунктам России, СНГ и мира в авиационном формате (включающие направление и скорость ветра, видимость, явления погоды, количество и форму облачности, нижнюю и верхнюю границу облачности).


Погода в Нерюнгри - сегодня

Время (UTC), дата Ветер
(°,м/с) 
Видим.   Явления Облачность Т
(°С)
Тd
(°С)
f(%) Тe
(°С)
Pmin
(гПа)
dP
(гПа)
Po
(мм)
O2
(г/м3)
Тmin Tmax R s Состояние
почвы
06 12.12.17 040 (СВ) 20000 м    6/0 верхняя 
[Ci fib]
-33.6 -35.9 80 -35  1043.3  -0.3  693  320           
09 12.12.17 тихо ()   20000 м    10/0 верхняя 
[Cs]
-35.5 -37.1 85 -36  1044.3  693  323           
12 12.12.17 090 (В) 20000 м    10/0 верхняя 
[Cs]
-36.5 -38.8 79 -41  1045  0.1  693  324    -33.3       
15 12.12.17 070 (В) 20000 м    10/0 верхняя 
[Cs]
-38 -40.3 79 -39  1045.5  -0.3  693  326           
18 12.12.17 тихо ()   20000 м    10/0 верхняя 
[Cs]
-39.6 -41.7 80 -40  1046.9  0.4  693  329           
21 12.12.17 тихо ()   20000 м    4/0 верхняя 
[Ci fib]
-39.2 -41.2 81 -39  1046.7  0.1  693  328           
00 13.12.17 тихо ()   20000 м    1/0 верхняя 
[Ci fib]
-39.5 -41.1 85 -40  1047  693  329  -40      23  равномерный
сухой снег
100% 
03 13.12.17 нст () 20000 м  туман на расстоянии  ясно 
-38.5 -40.2 84 -40  1046.1  -0.2  693  327           
06 13.12.17 тихо ()   20000 м    ясно 
-36.2 -37.8 85 -36  1044.3  -0.4  693  324           
09 13.12.17 нст () 20000 м    ясно 
-36.5 -38.2 84 -38  1044.5  -0.1  693  324           
12 13.12.17 нст () 20000 м    ясно 
-37.8 -39.3 86 -39  1044.5  -0.7  692  326    -36.2       
15 13.12.17 нст () 20000 м    3/0 верхняя 
[Ci fib]
-38 -39.7 84 -39  1044.1  -0.4  692  326           
18 13.12.17 тихо ()   20000 м    3/0 верхняя 
[Ci fib]
-39.9 -42.2 79 -40  1044.4  -0.6  692  328           
21 13.12.17 нст () 20000 м    ясно 
-39.5 -41.1 85 -41  1043.5  -0.6  691  328           
00 14.12.17 нст () 20000 м    ясно 
-39.8 -41.6 83 -41  1043.2  -0.5  691  328  -40.4      23  равномерный
сухой снег
100% 
03 14.12.17 тихо ()   20000 м    ясно 
-37.6 -40.5 74 -38  1041.7  -0.1  691  325           
06 14.12.17 тихо ()   20000 м    3/0 верхняя 
[Ci fib]
-34.3 -36.5 80 -34  1039.7  -0.4  690  320           
09 14.12.17 тихо ()   20000 м    1/0 верхняя 
[Ci fib]
-35.6 -37.1 86 -36  1040.6  0.3  691  322           
12 14.12.17 тихо ()   20000 м    4/0 верхняя 
[Ci fib]
-36.5 -38.2 84 -37  1041.1  691  323    -33.9       
15 14.12.17 040 (СВ) 20000 м    8/0 верхняя 
[Ci fib]
-36.6 -38.2 85 -41  1041.1  691  323           
18 14.12.17 070 (В) 20000 м  слаб. снег  10/0 верхняя 
[Cs]
-35.4 -37.1 84 -36  1040.9  0.3  691  322           
21 14.12.17 100 (В) 20000 м  слаб. снег  10/0 верхняя 
[Cs]
-33.7 -35.3 85 -35  1039.8  691  319           
00 15.12.17 310 (СЗ) 20000 м  слаб. снег  10/0 средняя, верхняя 
[Ac trans|Cs]
-29.8 -31.5 85 -33  1038.6  0.5  691  314  -37    0.0  23  равномерный
сухой снег
100% 
03 15.12.17 320 (СЗ) 20000 м  слаб. снег  10/0 средняя, верхняя 
[Ac trans|Cs]
-27.3 -28.5 89 -31  1037.1  691  311           
06 15.12.17 320 (СЗ) 20000 м  слаб. снег  10/0 средняя, верхняя 
[Ac trans|Cs]
-25.1 -26.3 90 -30  1035.5  -0.6  691  308           
Время (UTC), дата Ветер
(°,м/с) 
Видим.   Явления Облачность Т
(°С)
Тd
(°С)
f(%) Тe
(°С)
Pmin
(гПа)
dP
(гПа)
Po
(мм)
O2
(г/м3)
Тmin Tmax R s Состояние
почвы

Для получения пояснительной информации подведите курсор к названию столбца.

ПОГОДА в Нерюнгри - архив

Всё, что Вы хотите узнать о погоде в Нерюнгри - удобно и подробно!

Выберите нужную дату (начиная с 1 января 2015* года) и нажмите кнопку "Найти".
Будут отображены архивные сводки погоды по пункту Нерюнгри, начиная с указанной даты.


Отображать данные в формате CSV (для использования в таблицах Excel)


Внимание! Наш архив погоды предназначен исключительно для личного некоммерческого использования в познавательных целях. Если Вам необходимы официальные справки о состоянии погоды (для производственных, юридических, коммерческих и т.п. целей), обращайтесь в органы Росгидромета.

*Примечание: данная дата относится к архиву по метеостанциям СССР (Россия, СНГ, Балтия).
Архив по метеостанциям Зарубежной Европы и Азии (кроме Китая) хранится 10 дней, по другим регионам земного шара (Китай, Африка, Америка, Австралия, Океания) - 1 день.

Нерюнгри - район местоположения метеостанции


Название, широта, долгота, высота метеостанции:
Нерюнгри (Чульман) 56.8°ш. 124.9°д. 858 м над ур. моря [Российская Федерация]

Дополнительная информация

В oтличие oт бoльшинства пoгoдных сайтoв мы публикуем пoдрoбную метеoинфoрмацию в детальнoм прoфессиoнальнoм фoрмате.

Характеристики температуры и влажнoсти вoздуха измеряются на высoте 2 м в тени вдали oт зданий и деревьев.
Скoрoсть ветра измеряется на высoте 10 м (на урoвне рoста челoвека скoрoсть ветра ниже в 1.5-2 раза). Если метеoстанция нахoдится в гoрoде или в лесу, тo скoрoсть ветра занижена на 2-4 м/с пo сравнению с oткрытым местoм. Скoрoсть ветра над акватoриями крупных рек и oзёр, а также на вершинах хoлмoв на 2-5 м/с выше, чем в oбычных услoвиях.
Атмoсфернoе давление в разных тoчках местнoсти мoжет значительнo oтличаться oт давления на метеoстанции, в зависимoсти oт услoвий рельефа (при пoдъёме на 10 м давление пoнижается примернo на 1 мм рт.ст.).